This is the latest recevied weather packets stored in our database for station/object YO8PIC-4. If no packets are shown the sender has not sent any weather packets the latest 10 day(s).
| Time | Temp. | Humidity | Pressure | Rain* | Wind** | Luminosity | Snow |
|---|---|---|---|---|---|---|---|
| 1777195992 | 26.67° C | 46% | 1007.8 hPa | - | - | - | - |
| 1777195392 | 26.67° C | 46% | 1007.4 hPa | - | - | - | - |
| 1777194792 | 26.67° C | 45% | 1006.2 hPa | - | - | - | - |
| 1777194192 | 26.11° C | 48% | 1005.5 hPa | - | - | - | - |
| 1777193592 | 26.11° C | 47% | 1005.1 hPa | - | - | - | - |
| 1777192991 | 26.67° C | 47% | 1004.6 hPa | - | - | - | - |
| 1777192391 | 26.67° C | 45% | 1001.8 hPa | - | - | - | - |
| 1777191791 | 26.67° C | 46% | 1001.8 hPa | - | - | - | - |
| 1777191191 | 26.11° C | 45% | 1001.7 hPa | - | - | - | - |
| 1777190591 | 26.11° C | 45% | 1001.7 hPa | - | - | - | - |
| 1777189991 | 26.11° C | 45% | 1001.7 hPa | - | - | - | - |
| 1777189391 | 26.67° C | 44% | 1001.9 hPa | - | - | - | - |
| 1777188790 | 26.67° C | 40% | 1001.9 hPa | - | - | - | - |
| 1777188190 | 27.22° C | 39% | 1002 hPa | - | - | - | - |
| 1777187590 | 26.67° C | 40% | 1002 hPa | - | - | - | - |
| 1777186990 | 26.67° C | 40% | 1002 hPa | - | - | - | - |
| 1777186390 | 26.67° C | 41% | 1002 hPa | - | - | - | - |
| 1777185790 | 26.67° C | 44% | 1002.3 hPa | - | - | - | - |
| 1777185190 | 26.11° C | 46% | 1002.4 hPa | - | - | - | - |
| 1777184590 | 26.11° C | 45% | 1002.6 hPa | - | - | - | - |
| 1777183989 | 26.11° C | 46% | 1002.5 hPa | - | - | - | - |
| 1777183389 | 26.11° C | 46% | 1002.6 hPa | - | - | - | - |
| 1777182789 | 26.11° C | 48% | 1002.8 hPa | - | - | - | - |
| 1777182189 | 26.11° C | 48% | 1002.8 hPa | - | - | - | - |
| 1777181589 | 26.11° C | 48% | 1002.9 hPa | - | - | - | - |
* Rain since midnight (hover to see other rain measurements)
** Current wind speed in m/s (hover to see current wind gust speed)